Regional Weather Roundup
Issued by NWS Burlington, VT

Current Version | Previous Version | Graphics & Text | Print | Product List | Glossary Off
Versions: 1 2 3 4 5 6 7 8 9 10 11 12 13 14 15 16 17 18 19 20 21 22 23 24 25 26 27 28 29 30 31 32 33 34 35 36 37 38 39 40 41 42 43 44 45 46 47 48 49 50

000
ASUS41 KBTV 301910
RWRBTV
VERMONT REGIONAL WEATHER ROUNDUP
NATIONAL WEATHER SERVICE BURLINGTON VT
300 PM EDT SAT JUL 30 2016

NOTE: "FAIR" INDICATES FEW OR NO CLOUDS BELOW 12,000 FEET WITH NO
SIGNIFICANT WEATHER AND/OR OBSTRUCTIONS TO VISIBILITY.

* THESE REPORTS ARE NOT UNDER NWS QUALITY CONTROL AND/OR DO NOT
  REPORT WEATHER SUCH AS PRECIPITATION AND FOG.

VTZ001>019-302000-
_____VERMONT_____


CITY           SKY/WX    TMP DP  RH WIND       PRES   REMARKS
BURLINGTON     PTSUNNY   79  50  36 CALM      30.07S
MONTPELIER     FAIR      76  54  46 N8        30.12S
MORRISVILLE    PTSUNNY   75  52  44 N3        30.09S
ST. JOHNSBURY*   N/A     79  51  37 MISG      30.05S
LYNDONVILLE*   FAIR      75  51  43 NW3       30.10S
MIDDLEBURY*    FAIR      79  50  35 N8        30.06F
RUTLAND*       FAIR      78  57  48 VRB6      30.05F
SPRINGFIELD    FAIR      79  54  41 S5        30.05S
HIGHGATE*      FAIR      76  56  49 N8        30.08S
NEWPORT*       FAIR      71  54  55 CALM      30.09S
BENNINGTON     FAIR      80  59  48 VRB5      30.05F

_____LAKE CHAMPLAIN_____


CITY           SKY/WX    TMP DP  RH WIND       PRES   REMARKS

$$

NYZ007-026>031-035-052-083-087-302000-
_____NORTHERN NEW YORK_____


CITY           SKY/WX    TMP DP  RH WIND       PRES   REMARKS
PLATTSBURGH    MOSUNNY   75  58  55 NE8       30.07F
SARANAC LAKE   MOSUNNY   75  51  43 VRB7      30.08F
MASSENA        MOSUNNY   77  56  48 NE5       30.08F
POTSDAM*       SUNNY     75  57  53 NE7       30.07F
WATERTOWN      MOSUNNY   81  51  35 MISG      30.04F
FT DRUM        MOSUNNY   79  57  47 NE10      30.05F
ALBANY         CLOUDY    79  61  53 NW6       30.04F
GLENS FALLS    MOSUNNY   81  57  43 VRB5      30.03F

$$
NHZ002-005-011-302000-
_____NEW HAMPSHIRE_____


CITY           SKY/WX    TMP DP  RH WIND       PRES   REMARKS
LEBANON        SUNNY     84  52  33 N9        30.04F
MT WASHINGTON  PTSUNNY   55  46  71 W3          N/A
PLYMOUTH       FAIR      80  50  35 NW8       30.04S
WHITEFIELD     SUNNY     77  52  41 CALM      30.07S

$$

_____REGIONAL QUEBEC LOCATIONS_____


CITY           SKY/WX    TMP DP  RH WIND       PRES   REMARKS
MONTREAL       PTSUNNY   77  55  47 SW13G20   30.07S
QUEBEC CITY    PTSUNNY   73  52  46 W7        30.03S
SHERBROOKE     MOSUNNY   73  54  49 NW8       30.07S

_____REGIONAL ONTARIO LOCATIONS_____


CITY           SKY/WX    TMP DP  RH WIND       PRES   REMARKS
OTTAWA         MOSUNNY   79  52  38 NE7       30.08F

______KEY______
VSB  - VISIBILITY IN MILES
WCI  - WIND CHILL INDEX
HX   - HEAT INDEX
$$
NNNN



USA.gov is the U.S. government's official web portal to all federal, state and local government web resources and services.